Tracking 29090 objects as of 16-Jul-2024
HD Live streaming from Space Station
objects crossing your sky now

ESA/GOES

Track ESA/GOES now!
ESA/GOES is classified as:


NORAD ID: 9931
Int'l Code: 1977-029A
Perigee: 2,600.0 km
Apogee: 38,567.3 km
Inclination: 26.0 °
Period: 734.0 minutes
Semi major axis: 26954 km
RCS: 4.0849 m2 (large)
Launch date: April 20, 1977
Source: European Space Agency (ESA)
Launch site: AIR FORCE EASTERN TEST RANGE (AFETR)
Your satellite tracking list
Your tracking list is empty




NASA's NSSDC Master Catalog

Two Line Element Set (TLE):
1 09931U 77029A   24197.10853590 -.00000011  00000-0  00000-0 0  9994
2 09931  25.9658 169.5225 6671829  99.1335 336.1790  1.96179032338076
Source of the keplerian elements: AFSPC